Regional Weather Roundup
Issued by NWS Goodland, KS

Home | Current Version | Previous Version | Text Only | Print | Product List | Glossary On
Versions: 1 2 3 4 5 6 7 8 9 10 11 12 13 14 15 16 17 18 19 20 21 22 23 24 25 26 27 28 29 30 31 32 33 34 35 36 37 38 39 40 41 42 43 44 45 46 47 48 49 50
000
ASUS43 KGLD 211659
RWRGLD

GOODLAND FORECAST AREA HOURLY WEATHER ROUNDUP
NATIONAL WEATHER SERVICE GOODLAND KS
1000 AM MST SUN DEC 21 2014

...OFFICIAL OBSERVATIONS...

CITY           SKY/WX    TMP DP  RH WIND       PRES   REMARKS
GOODLAND KS    MOSUNNY   42  28  57 S8        29.70F
HILL CITY KS   CLOUDY    40  37  89 SW12      29.78F FOG
IMPERIAL NEB   PTSUNNY   40  28  62 S10       29.66F
MCCOOK NEB     SUNNY     42  32  67 S10       29.70F
AKRON CO       CLOUDY    39  25  57 S9        29.67S
BURLINGTON CO  MOSUNNY   45  29  53 SW3       29.69F
LIMON CO       MOSUNNY   41  26  55 SE6       29.68F
$$

...UNOFFICIAL OBSERVATIONS...

CITY           SKY/WX    TMP DP  RH WIND       PRES   REMARKS
GOVE KS          N/A     37  32  82 MISG        N/A
TRIBUNE KS     SUNNY     43  37  81 CALM      29.74F
KIT CARSON CO    N/A     33  29  84 MISG        N/A
YUMA CO          N/A     39  26  61 SW9         N/A
$$


USA.gov is the U.S. government's official web portal to all federal, state and local government web resources and services.